AirNav   Air Wisconsin Up To $57,000 Bonus
 
 1636 users online  

C98 Lake Village Airport
Lake Village, Indiana, USA

GOING TO LAKE VILLAGE?


FAA INFORMATION EFFECTIVE 26 JANUARY 2023

Location

FAA Identifier: C98
Lat/Long: 41-09-00.1240N 087-27-45.1180W
41-09.002067N 087-27.751967W
41.1500344,-87.4625328
(estimated)
Elevation: 644 ft. / 196 m (estimated)
Variation: 01W (1985)
From city: 1 mile NW of LAKE VILLAGE, IN
Time zone: UTC -6 (UTC -5 during Daylight Saving Time)
Zip code: 46349

Airport Operations

Airport use: Open to the public
Activation date: 03/1947
Control tower: no
ARTCC: CHICAGO CENTER
FSS: TERRE HAUTE FLIGHT SERVICE STATION
NOTAMs facility: HUF (NOTAM-D service available)
Attendance: SR-SS
Wind indicator: yes
Segmented circle: no

Airport Communications

CTAF: 122.9
WX AWOS-AV at C56 (17 nm NW): 119.125 (708-534-5256)
WX AWOS-3P at RZL (18 nm SE): 119.175 (219-866-7167)
WX AWOS-3 at IKK (18 nm W): 128.475 (815-939-4044)

Nearby radio navigation aids

VOR radial/distance  VOR name  Freq  Var
EONr114/16.5PEOTONE VORTAC113.2002E
CGTr165/22.1CHICAGO HEIGHTS VORTAC114.2002E
OXIr254/38.1KNOX VOR/DME115.6000E
BVTr332/39.8BOILER VORTAC115.1001E

Airport Services

Parking: tiedowns
Airframe service: MAJOR
Powerplant service: MAJOR

Runway Information

Runway 18/36

Dimensions: 2000 x 140 ft. / 610 x 43 m
MID 38 FT ASPH.
Surface: turf, in fair condition
Runway edge markings: 3 YELLOW TIRES/LGTS EACH SIDE.
RUNWAY 18  RUNWAY 36
Latitude: 41-09.132833N41-08.704667N
Longitude: 087-27.618500W087-27.618500W
Elevation: 640.0 ft.644.0 ft.
Traffic pattern: leftleft
Runway end identifier lights: nono
Obstructions: 10 ft. road, 250 ft. from runway, 25:1 slope to clear15 ft. road, 320 ft. from runway, 21:1 slope to clear

Airport Ownership and Management from official FAA records

Ownership: Privately-owned
Owner: MICHAEL STEINLE
3644 W. STATE ROAD 10
LAKE VILLAGE, IN 46349
Phone 219-992-9200
Manager: MICHAEL STEINLE
3644 W. STATE ROAD 10
LAKE VILLAGE, IN 46349
Phone 219-992-9200

Airport Operational Statistics

Aircraft based on the field: 16
Single engine airplanes: 12
Gliders airplanes: 4
    
Aircraft operations: avg 100/week *
67% local general aviation
33% transient general aviation
* for 12-month period ending 31 December 2019

Additional Remarks

VEHICLES ON ROAD SRNDG RWY.
DEER ON & INVOF ARPT.
FOR CD CTC CHICAGO ARTCC AT 630-906-8921.

Instrument Procedures

There are no published instrument procedures at C98.

Some nearby airports with instrument procedures:

C56 - Bult Field Airport (17 nm NW)
KRZL - Jasper County Airport (18 nm SE)
KIKK - Greater Kankakee Airport (18 nm W)
05C - Griffith-Merrillville Airport (22 nm N)
KIGQ - Lansing Municipal Airport (23 nm N)
 
Loc | Ops | Rwys | IFR | FBO | Links
Com | Nav | Svcs | Stats | Notes
Area around C98 (Lake Village Airport)
 
Road maps at: MapQuest Bing Google
 
Aerial photo
WARNING: Photo may not be current or correct
Aerial photo of C98 (Lake Village Airport)
Photo taken 17-Aug-2008

Do you have a better or more recent aerial photo of Lake Village Airport that you would like to share? If so, please send us your photo.

 
Sectional chart

 
Airport distance calculator
Flying to Lake Village Airport? Find the distance to fly.

From to C98

Sunrise and sunset
Times for 08-Feb-2023
 Local
(UTC-6)
 Zulu
(UTC)
Morning civil twilight06:2612:26
Sunrise06:5412:54
Sunset17:1423:14
Evening civil twilight17:4323:43

Current date and time
Zulu (UTC)  08-Feb-2023 20:29:32
Local (UTC-6)  08-Feb-2023 14:29:32
 
METAR
KRZL 
18nm SE 
082015Z AUTO 14003KT 10SM CLR 03/00 A3020 RMK AO2
KIKK 
18nm W 
082015Z AUTO 14005KT 10SM CLR 04/M02 A3018 RMK AO2 T00401018
KIGQ 
23nm N 
082015Z AUTO 12005KT 10SM CLR 05/M01 A3019 RMK AO2 T00501006
KVPZ 
28nm NE 
081956Z AUTO 20004KT 10SM CLR 04/M01 A3021 RMK AO2 SLP238 T00391011
KGYY 
28nm N 
081945Z VRB04KT 10SM CLR 05/M01 A3021
TAF
KGYY 
28nm N 
081720Z 0818/0918 18005KT P6SM SCT250 FM082100 14006KT P6SM BKN200 FM090300 10008KT 6SM -RA OVC040 FM090500 09011KT 4SM -RA BR SCT009 OVC015 FM090700 07014G23KT 2SM RA BR OVC005 PROB30 0912/0915 -TSRA OVC005CB FM091500 21015G25KT 3SM -RA BR OVC005
NOTAMs
Click for the latest NOTAMs
NOTAMs are issued by the DoD/FAA and will open in a separate window not controlled by AirNav.

 

 
 

Would you like to see your business listed on this page?

 If your business provides an interesting product or service to pilots, flight crews, aircraft, or users of the Lake Village Airport, you should consider listing it here.  To start the listing process, click on the button below
 
Add a business
 

Other Pages about Lake Village Airport

Update a link
 
Copyright © AirNav, LLC. All rights reserved. Privacy Policy  Contact